LPA3638 UNNT-UIUU

Flight info

Callsign LPA3638
Flight time N/A
Altitude 41000
Route OGATI1K OGATI A308 RISPA A822 LAPAK B151 RO A817 SUKOR A91 KA A806 OSTUN OSTUN1N
Aircraft B789/H-SDE1E2E3FGHIJ2J3J4J5M1RWXY/LB1D1

Departure

Time N/A
Airport Novosibirsk Tolmachevo Airport (UNNT)

Arrival

Time 2026-04-25 20:30
Airport Baikal International Airport (UIUU)
Time Latitude Longitude Altitude Speed Heading
2026-04-25 20:26 51.77637 107.18944 4041 ft 185 kts 76°
2026-04-25 20:26 51.77860 107.20847 3923 ft 179 kts 73°
2026-04-25 20:27 51.78148 107.22767 3838 ft 171 kts 73°
2026-04-25 20:27 51.78404 107.24638 3966 ft 171 kts 73°
2026-04-25 20:27 51.78672 107.26585 3801 ft 183 kts 73°
2026-04-25 20:27 51.78947 107.28611 3497 ft 182 kts 74°
2026-04-25 20:28 51.79206 107.30559 3195 ft 175 kts 75°
2026-04-25 20:28 51.79453 107.32423 2927 ft 166 kts 75°
2026-04-25 20:28 51.79684 107.34193 2686 ft 158 kts 76°
2026-04-25 20:28 51.79903 107.35886 2464 ft 149 kts 76°
2026-04-25 20:29 51.80116 107.37466 2264 ft 139 kts 75°
2026-04-25 20:29 51.80317 107.38979 2080 ft 137 kts 77°
2026-04-25 20:29 51.80513 107.40489 1895 ft 139 kts 77°
2026-04-25 20:29 51.80717 107.42057 1703 ft 147 kts 77°
2026-04-25 20:30 51.80854 107.43110 1678 ft 140 kts 77°
2026-04-25 20:30 51.81073 107.44765 1669 ft 76 kts 78°
2026-04-25 20:30 51.81175 107.45542 1657 ft 63 kts 78°
2026-04-25 20:30 51.81249 107.46096 1646 ft 35 kts 77°
2026-04-25 20:31 51.81255 107.46401 1643 ft 18 kts 62°
2026-04-25 20:31 51.81279 107.46367 1643 ft 11 kts 262°
2026-04-25 20:31 51.81244 107.46081 1646 ft 44 kts 258°
2026-04-25 20:31 51.81176 107.45557 1657 ft 46 kts 258°
2026-04-25 20:32 51.81113 107.45075 1666 ft 41 kts 258°
2026-04-25 20:32 51.81052 107.44598 1670 ft 50 kts 258°
2026-04-25 20:32 51.80946 107.44247 1672 ft 28 kts 189°
2026-04-25 20:32 51.80851 107.44258 1671 ft 0 kts 167°
2026-04-25 20:33 51.80845 107.44260 1671 ft 4 kts 168°
2026-04-25 20:33 51.80774 107.44282 1670 ft 14 kts 168°
2026-04-25 20:33 51.80670 107.44312 1668 ft 15 kts 184°
2026-04-25 20:33 51.80600 107.44315 1666 ft 15 kts 171°
2026-04-25 20:34 51.80544 107.44331 1665 ft 0 kts 169°